Location: Unspecified
(0.0000°N, 0.0000°E)
Time: 00:43:15
(UTC+00:00)

Courier 1B Rocket - All Passes

Search period start: 18 December 2014 00:00
Search period end: 28 December 2014 00:00
Orbit: 920 x 1202 km, 28.2° (Epoch: 15 December)

Date Brightness Start Highest point End Pass type
(mag) Time Alt. Az. Time Alt. Az. Time Alt. Az.
18 Dec - 00:41:07 10° WSW 00:47:20 76° NNW 00:53:40 10° NE night (unlit)
18 Dec - 02:36:27 10° WNW 02:41:00 21° NNW 02:45:42 10° NNE night (unlit)
18 Dec - 10:16:31 10° NNW 10:22:56 29° NNE 10:29:28 10° E daylight
18 Dec - 12:09:08 10° WNW 12:16:59 87° NNE 12:24:47 10° ESE daylight
18 Dec - 14:04:20 10° W 14:10:59 30° SSW 14:17:28 10° SSE daylight
18 Dec - 21:48:23 10° SSW 21:52:45 19° SSE 21:57:01 10° ESE visible
18 Dec - 23:40:11 10° SW 23:46:26 70° SSE 23:52:39 10° ENE night (unlit)
19 Dec - 01:34:30 10° W 01:39:53 30° NNW 01:45:23 10° NNE night (unlit)
19 Dec - 09:16:16 10° NNW 09:21:29 20° NNE 09:26:51 10° ENE daylight
19 Dec - 11:08:05 10° NW 11:15:41 61° NNE 11:23:24 10° ESE daylight
19 Dec - 13:02:16 10° W 13:09:38 44° SSW 13:16:54 10° SE daylight
19 Dec - 15:00:09 10° SW 15:04:06 15° SSW 15:07:59 10° S daylight
19 Dec - 20:48:36 10° S 20:51:27 13° SSE 20:54:14 10° SE visible
19 Dec - 22:39:26 10° SW 22:45:29 44° SSE 22:51:23 10° E visible
20 Dec - 00:32:56 10° WSW 00:38:53 46° NNW 00:44:52 10° NE night (unlit)
20 Dec - 02:30:01 10° NW 02:32:49 13° NNW 02:35:39 10° N night (unlit)
20 Dec - 08:16:34 10° N 08:19:58 14° NNE 08:23:25 10° NE daylight
20 Dec - 10:07:19 10° NW 10:14:23 42° NNE 10:21:41 10° E daylight
20 Dec - 12:00:38 10° WNW 12:08:19 64° SSW 12:16:03 10° SE daylight
20 Dec - 13:56:56 10° WSW 14:02:33 21° SSW 14:08:05 10° SSE daylight
20 Dec - 21:38:53 10° SSW 21:44:27 29° SSE 21:49:49 10° E visible
20 Dec - 23:31:39 10° WSW 23:37:57 73° NNW 23:44:10 10° NE night (unlit)
21 Dec - 01:27:15 10° WNW 01:31:34 19° NNW 01:35:56 10° NNE night (unlit)
21 Dec - 09:06:51 10° NNW 09:13:04 29° NNE 09:19:32 10° E daylight
21 Dec - 10:59:21 10° WNW 11:07:02 89° NNE 11:14:55 10° ESE daylight
21 Dec - 12:54:27 10° W 13:01:05 30° SSW 13:07:43 10° SSE daylight
21 Dec - 14:55:20 10° SSW 14:56:00 10° SSW 14:56:40 10° SSW daylight
21 Dec - 20:38:31 10° SSW 20:43:17 20° SSE 20:47:51 10° ESE visible
21 Dec - 22:30:35 10° SW 22:37:02 73° SSE 22:43:15 10° ENE visible
22 Dec - 00:25:08 10° W 00:30:28 29° NNW 00:35:47 10° NNE night (unlit)
22 Dec - 08:06:43 10° NNW 08:11:42 20° NNE 08:16:51 10° ENE daylight
22 Dec - 09:58:23 10° NW 10:05:46 62° NNE 10:13:29 10° ESE daylight
22 Dec - 11:52:28 10° W 11:59:42 43° SSW 12:07:03 10° SE daylight
22 Dec - 13:50:13 10° SW 13:54:17 15° SSW 13:58:19 10° S daylight
22 Dec - 19:38:26 10° S 19:41:56 14° SSE 19:45:19 10° SE visible
22 Dec - 21:29:43 10° SW 21:36:04 47° SSE 21:42:04 10° ENE visible
22 Dec - 23:23:26 10° WSW 23:29:29 45° NNW 23:35:23 10° NE night (unlit)
23 Dec - 01:20:57 10° NW 01:23:22 12° NNW 01:25:47 10° N night (unlit)
23 Dec - 07:07:15 10° N 07:10:15 13° NNE 07:13:19 10° NE daylight
23 Dec - 08:57:42 10° NW 09:04:31 42° NNE 09:11:42 10° E daylight
23 Dec - 10:50:54 10° WNW 10:58:23 62° SSW 11:06:07 10° SE daylight
23 Dec - 12:47:07 10° WSW 12:52:41 21° SSW 12:58:16 10° SSE daylight
23 Dec - 18:39:36 10° S 18:40:24 10° SSE 18:41:12 10° SSE visible
23 Dec - 20:29:02 10° SSW 20:34:59 31° SSE 20:40:36 10° E visible
23 Dec - 22:22:02 10° WSW 22:28:33 71° NNW 22:34:46 10° NE visible
24 Dec - 00:17:54 10° WNW 00:22:08 19° NNW 00:26:21 10° NNE night (unlit)
24 Dec - 07:57:20 10° NNW 08:03:16 28° NNE 08:09:32 10° E daylight
24 Dec - 09:49:42 10° WNW 09:57:07 89° SSW 10:04:56 10° ESE daylight
24 Dec - 11:44:42 10° W 11:51:11 29° SSW 11:57:48 10° SSE daylight
24 Dec - 13:45:12 10° SSW 13:46:12 10° SSW 13:47:11 10° S daylight
24 Dec - 19:28:30 10° SSW 19:33:45 22° SSE 19:38:43 10° ESE visible
24 Dec - 21:20:51 10° SW 21:27:36 75° SSE 21:33:55 10° ENE visible
24 Dec - 23:15:38 10° W 23:21:03 29° NNW 23:26:20 10° NNE night (unlit)
25 Dec - 06:57:19 10° NNW 07:01:59 19° NNE 07:06:50 10° ENE daylight
25 Dec - 08:48:49 10° NW 08:55:54 63° NNE 09:03:28 10° ESE daylight
25 Dec - 10:42:49 10° W 10:49:47 42° SSW 10:57:04 10° SE daylight
25 Dec - 12:40:29 10° SW 12:44:26 15° SSW 12:48:26 10° S daylight
25 Dec - 18:28:13 10° SSW 18:32:20 16° SSE 18:36:19 10° ESE visible
25 Dec - 20:19:52 10° SW 20:26:34 50° SSE 20:32:49 10° ENE visible
25 Dec - 22:13:47 10° W 22:20:03 44° NNW 22:26:01 10° NE visible
26 Dec - 00:11:39 10° NW 00:13:56 12° NNW 00:16:11 10° N night (unlit)
26 Dec - 05:58:05 10° N 06:00:37 12° NNE 06:03:12 10° NE daylight
26 Dec - 07:48:14 10° NW 07:54:44 42° NNE 08:01:42 10° E daylight
26 Dec - 09:41:20 10° WNW 09:48:30 60° SSW 09:56:06 10° SE daylight
26 Dec - 11:37:28 10° WSW 11:42:49 20° SSW 11:48:17 10° SSE daylight
26 Dec - 17:28:28 10° S 17:30:46 12° SSE 17:33:00 10° SE daylight
26 Dec - 19:19:02 10° SW 19:25:25 34° SSE 19:31:22 10° E visible
26 Dec - 21:12:15 10° WSW 21:19:05 70° NNW 21:25:27 10° NE visible
26 Dec - 23:08:22 10° WNW 23:12:42 19° NNW 23:16:56 10° NNE night (unlit)
27 Dec - 06:47:56 10° NNW 06:53:34 28° NNE 06:59:32 10° E daylight
27 Dec - 08:40:12 10° WNW 08:47:17 87° SSW 08:54:54 10° ESE daylight
27 Dec - 10:35:08 10° W 10:41:19 28° SSW 10:47:46 10° SSE daylight
27 Dec - 18:18:24 10° SSW 18:24:07 24° SSE 18:29:32 10° ESE visible
27 Dec - 20:10:58 10° SW 20:18:04 78° SSE 20:24:38 10° ENE visible
27 Dec - 22:05:57 10° W 22:11:35 29° NNW 22:16:58 10° NNE visible
